When you browse on this site, cookies collect data to enhance your experience and personalize the content and advertising you see.
Visit our Privacy Policy to learn more. By continuing to use the site, you agree to this use of cookies and data.
EN

Hourly Weather La Massana

Today, 4 July, Saturday

Time Temperature Precipitation Wind Pressure Humidity
00:00 +6°C° 0 mm 2 mps 613 mmHg 85%
01:00 +5°C° 0 mm 2 mps 613 mmHg 79%
02:00 +6°C° 0 mm 1 mps 613 mmHg 73%
03:00 +6°C° 0 mm 1 mps 612 mmHg 67%
04:00 +7°C° 0 mm 1 mps 613 mmHg 63%
05:00 +8°C° 0 mm 1 mps 614 mmHg 58%
06:00 +10°C° 0 mm 1 mps 615 mmHg 53%
07:00 +12°C° 0 mm 1 mps 616 mmHg 48%
08:00 +14°C° 0 mm 1 mps 617 mmHg 43%
09:00 +18°C° 0 mm 1 mps 618 mmHg 38%
10:00 +19°C° 0 mm 1 mps 618 mmHg 38%
11:00 +19°C° 0 mm 2 mps 618 mmHg 38%
12:00 +20°C° 0 mm 2 mps 619 mmHg 38%
13:00 +20°C° 0 mm 2 mps 619 mmHg 40%
14:00 +20°C° 0 mm 2 mps 618 mmHg 43%
15:00 +20°C° 0 mm 2 mps 618 mmHg 46%
16:00 +19°C° 0 mm 2 mps 617 mmHg 53%
17:00 +17°C° 0 mm 2 mps 617 mmHg 59%
18:00 +16°C° 0 mm 1 mps 617 mmHg 66%
19:00 +14°C° 0 mm 2 mps 616 mmHg 72%
20:00 +12°C° 0 mm 2 mps 615 mmHg 77%
21:00 +9°C° 0 mm 2 mps 615 mmHg 82%
22:00 +9°C° 0 mm 2 mps 615 mmHg 73%
23:00 +9°C° 0 mm 2 mps 615 mmHg 63%

Tomorrow, 5 July, Sunday

Time Temperature Precipitation Wind Pressure Humidity
00:00 +9°C° 0 mm 2 mps 615 mmHg 53%
01:00 +9°C° 0 mm 2 mps 615 mmHg 51%
02:00 +9°C° 0 mm 2 mps 614 mmHg 49%
03:00 +9°C° 0 mm 2 mps 614 mmHg 48%
04:00 +10°C° 0 mm 2 mps 615 mmHg 52%
05:00 +12°C° 0 mm 1 mps 615 mmHg 57%
06:00 +13°C° 0 mm 1 mps 616 mmHg 62%
07:00 +15°C° 0 mm 1 mps 617 mmHg 57%
08:00 +19°C° 0 mm 1 mps 618 mmHg 53%
09:00 +21°C° 0 mm 1 mps 619 mmHg 48%
10:00 +22°C° 0 mm 1 mps 619 mmHg 46%
11:00 +23°C° 0 mm 2 mps 619 mmHg 43%
12:00 +24°C° 0 mm 2 mps 619 mmHg 41%
13:00 +24°C° 0 mm 2 mps 619 mmHg 41%
14:00 +24°C° 0 mm 2 mps 618 mmHg 42%
15:00 +24°C° 0 mm 2 mps 618 mmHg 43%
16:00 +21°C° 0 mm 2 mps 617 mmHg 50%
17:00 +20°C° 0 mm 2 mps 617 mmHg 57%
18:00 +20°C° 0 mm 1 mps 616 mmHg 64%
19:00 +18°C° 0 mm 1 mps 615 mmHg 71%
20:00 +15°C° 0 mm 1 mps 615 mmHg 77%
21:00 +13°C° 0 mm 1 mps 614 mmHg 83%
22:00 +12°C° 0 mm 1 mps 614 mmHg 82%
23:00 +12°C° 0 mm 1 mps 613 mmHg 82%

Day after tomorrow, 6 July, Monday

Time Temperature Precipitation Wind Pressure Humidity
00:00 +12°C° 0 mm 1 mps 613 mmHg 81%
01:00 +12°C° 0 mm 1 mps 613 mmHg 80%
02:00 +12°C° 0 mm 1 mps 613 mmHg 78%
03:00 +12°C° 0 mm 1 mps 613 mmHg 77%
04:00 +12°C° 0 mm 1 mps 613 mmHg 78%
05:00 +13°C° 0 mm 1 mps 613 mmHg 78%
06:00 +13°C° 0 mm 2 mps 614 mmHg 79%
07:00 +15°C° 0 mm 1 mps 614 mmHg 76%
08:00 +16°C° 0 mm 1 mps 615 mmHg 72%
09:00 +19°C° 0 mm 1 mps 616 mmHg 69%
10:00 +19°C° 0 mm 1 mps 616 mmHg 68%
11:00 +18°C° 0 mm 2 mps 616 mmHg 67%
12:00 +19°C° 0 mm 2 mps 616 mmHg 66%
13:00 +18°C° 0.2 mm 2 mps 615 mmHg 69%
14:00 +18°C° 0.2 mm 2 mps 615 mmHg 73%
15:00 +17°C° 0.2 mm 2 mps 614 mmHg 77%
16:00 +16°C° 0.7 mm 2 mps 614 mmHg 80%
17:00 +15°C° 0.7 mm 2 mps 613 mmHg 84%
18:00 +14°C° 0.7 mm 2 mps 613 mmHg 88%
19:00 +13°C° 0.2 mm 2 mps 613 mmHg 89%
20:00 +10°C° 0.2 mm 2 mps 612 mmHg 91%
21:00 +9°C° 0.2 mm 2 mps 612 mmHg 93%
22:00 +9°C° 0 mm 2 mps 612 mmHg 92%
23:00 +8°C° 0 mm 2 mps 612 mmHg 92%

7 July, Tuesday

Time Temperature Precipitation Wind Pressure Humidity
00:00 +8°C° 0 mm 2 mps 612 mmHg 92%
01:00 +8°C° 0 mm 2 mps 611 mmHg 92%
02:00 +8°C° 0 mm 2 mps 611 mmHg 93%
03:00 +7°C° 0 mm 2 mps 611 mmHg 93%
04:00 +8°C° 0 mm 2 mps 611 mmHg 87%
05:00 +8°C° 0 mm 2 mps 611 mmHg 81%
06:00 +8°C° 0 mm 2 mps 611 mmHg 75%
07:00 +12°C° 0 mm 2 mps 612 mmHg 62%
08:00 +14°C° 0 mm 2 mps 614 mmHg 49%
09:00 +17°C° 0 mm 2 mps 615 mmHg 37%
10:00 +18°C° 0 mm 2 mps 615 mmHg 35%
11:00 +19°C° 0 mm 2 mps 615 mmHg 33%
12:00 +20°C° 0 mm 2 mps 615 mmHg 32%
13:00 +20°C° 0 mm 2 mps 615 mmHg 34%
14:00 +20°C° 0 mm 2 mps 615 mmHg 37%
15:00 +20°C° 0 mm 2 mps 615 mmHg 39%
16:00 +18°C° 0 mm 2 mps 614 mmHg 47%
17:00 +17°C° 0 mm 2 mps 614 mmHg 55%
18:00 +16°C° 0 mm 2 mps 613 mmHg 62%
19:00 +14°C° 0 mm 1 mps 613 mmHg 69%
20:00 +12°C° 0 mm 1 mps 612 mmHg 76%
21:00 +10°C° 0 mm 1 mps 612 mmHg 83%
22:00 +10°C° 0 mm 1 mps 612 mmHg 83%
23:00 +10°C° 0 mm 1 mps 612 mmHg 84%

8 July, Wednesday

Time Temperature Precipitation Wind Pressure Humidity
00:00 +10°C° 0 mm 1 mps 612 mmHg 84%
01:00 +10°C° 0 mm 1 mps 612 mmHg 85%
02:00 +10°C° 0 mm 1 mps 612 mmHg 86%
03:00 +10°C° 0 mm 1 mps 611 mmHg 88%
04:00 +11°C° 0 mm 1 mps 612 mmHg 85%
05:00 +12°C° 0 mm 1 mps 613 mmHg 82%
06:00 +12°C° 0 mm 0 mps 613 mmHg 79%
07:00 +15°C° 0 mm 1 mps 614 mmHg 70%
08:00 +18°C° 0 mm 1 mps 615 mmHg 60%
09:00 +21°C° 0 mm 1 mps 616 mmHg 51%
10:00 +20°C° 0 mm 2 mps 616 mmHg 48%
11:00 +21°C° 0 mm 2 mps 616 mmHg 45%
12:00 +23°C° 0 mm 2 mps 617 mmHg 43%
13:00 +23°C° 0 mm 2 mps 616 mmHg 43%
14:00 +23°C° 0 mm 2 mps 616 mmHg 44%
15:00 +24°C° 0 mm 2 mps 616 mmHg 45%
16:00 +21°C° 0.1 mm 2 mps 615 mmHg 51%
17:00 +20°C° 0.1 mm 2 mps 615 mmHg 58%
18:00 +20°C° 0.1 mm 1 mps 614 mmHg 64%
19:00 +18°C° 0.1 mm 1 mps 614 mmHg 72%
20:00 +15°C° 0.1 mm 1 mps 613 mmHg 80%
21:00 +13°C° 0.1 mm 1 mps 613 mmHg 88%
22:00 +13°C° 0 mm 1 mps 613 mmHg 88%
23:00 +12°C° 0 mm 1 mps 613 mmHg 88%

9 July, Thursday

Time Temperature Precipitation Wind Pressure Humidity
00:00 +12°C° 0 mm 1 mps 613 mmHg 88%
01:00 +12°C° 0 mm 1 mps 613 mmHg 87%
02:00 +12°C° 0 mm 1 mps 613 mmHg 87%
03:00 +12°C° 0 mm 1 mps 613 mmHg 86%
04:00 +11°C° 0.2 mm 0 mps 613 mmHg 86%
05:00 +12°C° 0.2 mm 0 mps 614 mmHg 86%
06:00 +13°C° 0.2 mm 0 mps 614 mmHg 86%
07:00 +14°C° 0.7 mm 0 mps 615 mmHg 79%
08:00 +16°C° 0.7 mm 0 mps 616 mmHg 73%
09:00 +20°C° 0.7 mm 1 mps 616 mmHg 66%
10:00 +20°C° 0.8 mm 1 mps 617 mmHg 64%
11:00 +21°C° 0.8 mm 1 mps 617 mmHg 61%
12:00 +20°C° 0.8 mm 2 mps 617 mmHg 59%
13:00 +21°C° 1.4 mm 1 mps 617 mmHg 61%
14:00 +21°C° 1.4 mm 1 mps 616 mmHg 64%
15:00 +20°C° 1.4 mm 1 mps 616 mmHg 67%
16:00 +19°C° 1.6 mm 1 mps 615 mmHg 74%
17:00 +18°C° 1.6 mm 1 mps 615 mmHg 81%
18:00 +16°C° 1.6 mm 1 mps 614 mmHg 87%
19:00 +15°C° 0.5 mm 1 mps 614 mmHg 89%
20:00 +14°C° 0.5 mm 1 mps 614 mmHg 90%
21:00 +13°C° 0.5 mm 1 mps 614 mmHg 92%
22:00 +12°C° 0 mm 1 mps 614 mmHg 92%
23:00 +12°C° 0 mm 1 mps 613 mmHg 92%
Show more